Home   Weather   Dieppe   Past weeks
Flag for Canada

Past Weather in Dieppe, New Brunswick, Canada — Yesterday and Last 2 Weeks

Now
68 °F

Sprinkles. Overcast.


Feels Like: 68 °F
Forecast: 82 / 64 °F
Wind: 15 mph from Southwest

Location: Moncton

Current Time: Jul 17, 2019 at 3:44:19 am

Latest Report: Jul 17, 2019 at 2:00 am


Visibility: 12 mi

Pressure: 29.90 "Hg

Humidity: 69%

Dew Point: 57 °F

Location of DieppeLocation

Past Weather in Dieppe — Graph

°F

Dieppe Temperature Yesterday

Maximum temperature yesterday: 84 °F (at 3:00 pm)
Minimum temperature yesterday: 57 °F (at 6:00 am)
Average temperature yesterday: 71 °F

High & Low Weather Summary for the Past Weeks

 TemperatureHumidityPressure
High93 °F (Jul 5, 4:00 pm)100% (Jul 2, 2:00 am)30.12 "Hg (Jul 2, 2:00 am)
Low46 °F (Jul 11, 6:00 am)32% (Jul 8, 2:00 pm)29.62 "Hg (Jul 6, 5:11 pm)
Average66 °F79%29.85 "Hg
* Reported Jul 2 2:00 am — Jul 17 2:00 am, Dieppe. Weather by CustomWeather, © 2019

Note: Actual official high and low records may vary slightly from our data, if they occured in-between our weather recording intervals... More about our weather records

Advertising

Dieppe Weather History for the Previous 24 Hours

Scroll right to see more
 ConditionsComfort  
Time TempWeatherWind HumidityBarometerVisibility
2:00 am
Wed, Jul 17
68 °FSprinkles. Overcast.15 mph69%29.90 "Hg12 mi
1:00 am66 °FSprinkles. Mostly cloudy.7 mph73%29.90 "Hg12 mi
12:35 am68 °FSprinkles. Overcast.7 mph64%29.89 "Hg12 mi
12:00 am68 °FPassing clouds.8 mph64%29.89 "Hg15 mi
11:00 pm
Tue, Jul 16
68 °FPartly cloudy.7 mph73%29.90 "Hg15 mi
10:00 pm70 °FPartly cloudy.5 mph69%29.90 "Hg15 mi
9:00 pm73 °FBroken clouds.5 mph65%29.91 "Hg15 mi
8:00 pm77 °FBroken clouds.6 mph61%29.90 "Hg15 mi
7:00 pm81 °FPartly sunny.10 mph54%29.89 "Hg15 mi
6:00 pm84 °FPartly sunny.8 mph45%29.89 "Hg15 mi
5:00 pm84 °FBroken clouds.9 mph43%29.90 "Hg15 mi
4:00 pm84 °FBroken clouds.12 mph43%29.91 "Hg15 mi
3:00 pm84 °FBroken clouds.7 mph45%29.92 "Hg15 mi
2:00 pm82 °FPartly sunny.10 mph45%29.93 "Hg15 mi
1:00 pm81 °FBroken clouds.8 mph58%29.94 "Hg15 mi
12:00 pm79 °FPassing clouds.8 mph61%29.96 "Hg15 mi
11:00 am73 °FScattered clouds.6 mph74%29.96 "Hg15 mi
10:00 am70 °FPartly sunny.8 mph83%29.96 "Hg15 mi
9:00 am66 °FPartly sunny.7 mph88%29.96 "Hg15 mi
8:00 am63 °FPassing clouds.9 mph94%29.95 "Hg15 mi
7:00 am59 °FPassing clouds.9 mph100%29.94 "Hg15 mi
6:00 am57 °FPassing clouds.8 mph100%29.92 "Hg15 mi
5:00 am59 °FPassing clouds.8 mph100%29.90 "Hg15 mi
4:00 am59 °FPassing clouds.9 mph100%29.90 "Hg15 mi
3:00 am59 °FPassing clouds.9 mph100%29.89 "Hg15 mi
Weather by CustomWeather, © 2019

See weather overview